This is the latest recevied weather packets stored in our database for station/object OK2ZAW-23. If no packets are shown the sender has not sent any weather packets the latest 10 day(s).
| Time | Temp. | Humidity | Pressure | Rain* | Wind** | Luminosity | Snow |
|---|---|---|---|---|---|---|---|
| 1777628567 | 14.44° C | 42% | 1025.5 hPa | - | - | 335 W/m² | - |
| 1777627940 | 14.44° C | 42% | 1025.6 hPa | - | - | 335 W/m² | - |
| 1777627626 | 13.89° C | 42% | 1025.7 hPa | - | - | 335 W/m² | - |
| 1777626999 | 14.44° C | 43% | 1025.7 hPa | - | - | 335 W/m² | - |
| 1777626686 | 13.89° C | 44% | 1025.7 hPa | - | - | 335 W/m² | - |
| 1777626372 | 13.89° C | 44% | 1025.7 hPa | - | - | 335 W/m² | - |
| 1777626058 | 13.89° C | 44% | 1025.8 hPa | - | - | 335 W/m² | - |
| 1777625745 | 13.33° C | 44% | 1025.7 hPa | - | - | 335 W/m² | - |
| 1777625432 | 13.89° C | 45% | 1025.7 hPa | - | - | 335 W/m² | - |
| 1777625118 | 13.33° C | 46% | 1025.8 hPa | - | - | 335 W/m² | - |
| 1777624491 | 13.33° C | 46% | 1025.8 hPa | - | - | 335 W/m² | - |
| 1777624178 | 12.78° C | 47% | 1025.8 hPa | - | - | 335 W/m² | - |
| 1777623864 | 12.78° C | 47% | 1025.8 hPa | - | - | 335 W/m² | - |
| 1777623237 | 12.78° C | 47% | 1025.7 hPa | - | - | 335 W/m² | - |
| 1777622923 | 12.78° C | 47% | 1025.8 hPa | - | - | 335 W/m² | - |
| 1777622610 | 12.78° C | 48% | 1025.8 hPa | - | - | 335 W/m² | - |
| 1777621983 | 12.78° C | 49% | 1025.8 hPa | - | - | 335 W/m² | - |
| 1777621356 | 12.22° C | 49% | 1025.9 hPa | - | - | 335 W/m² | - |
| 1777619476 | 11.67° C | 53% | 1025.7 hPa | - | - | 335 W/m² | - |
| 1777619162 | 11.11° C | 52% | 1025.7 hPa | - | - | 335 W/m² | - |
| 1777618222 | 10.56° C | 53% | 1025.7 hPa | - | - | 335 W/m² | - |
| 1777617282 | 10° C | 55% | 1025.8 hPa | - | - | 335 W/m² | - |
| 1777616030 | 9.44° C | 59% | 1025.8 hPa | - | - | 335 W/m² | - |
| 1777615403 | 8.89° C | 59% | 1025.7 hPa | - | - | 335 W/m² | - |
| 1777614464 | 7.78° C | 64% | 1025.7 hPa | - | - | 335 W/m² | - |
* Rain since midnight (hover to see other rain measurements)
** Current wind speed in m/s (hover to see current wind gust speed)